Flag for U.S.A. Weather past 2 weeks in Denver, Colorado, U.S.A.

Now
65 °F

Passing clouds.


Feels Like: 65 °F
Forecast: 62 / 92 °F
Wind: 9 mph from South

Location: Buckley Air Force Base

Current Time: Jun 30, 2015 at 2:37:16 AM

Latest Report: Jun 30, 2015 at 1:58 AM


Visibility: 10 mi

Pressure: 29.99 "Hg

Humidity: 61%

Dew point: 51 °F

Location of DenverLocation

Historic Weather in Denver — Graph

°F

Denver temperature yesterday

Maximum temperature yesterday: 86 °F (at 2:58 PM)
Minimum temperature yesterday: 62 °F (at 5:58 AM)
Average temperature yesterday: 73 °F

Past Weeks' High & Low Weather Summary

 TemperatureHumidityPressure
High91 °F (Jun 19, 12:58 PM)100% (Jun 26, 3:58 AM)30.17 "Hg (Jun 26, 3:58 AM)
Low53 °F (Jun 15, 2:58 AM)17% (Jun 19, 11:58 AM)29.68 "Hg (Jun 21, 7:58 PM)
Average70 °F60%29.96 "Hg
* Reported Jun 15 12:58 AM — Jun 30 12:58 AM, Denver, Weather by CustomWeather, © 2015

Note: Actual official high and low records may vary slightly from our data, if they occured in-between our weather recording intervals... More about our weather records

Advertising

Denver weather history for previous 24 hours

 ConditionsComfort  
Time TempWeatherWind HumidityBarometerVisibility
12:58 AM
Tue, Jun 30
64 °FPassing clouds.9 mph69%30.01 "Hg10 mi
11:58 PM
Mon, Jun 29
67 °FPassing clouds.8 mph65%30.02 "Hg10 mi
10:58 PM69 °FClear.7 mph61%30.04 "Hg10 mi
10:55 PM69 °FPassing clouds.8 mph61%30.03 "Hg10 mi
9:58 PM68 °FPassing clouds.7 mph59%30.03 "Hg10 mi
8:58 PM74 °FPassing clouds.7 mph45%30.02 "Hg10 mi
7:58 PM78 °FPassing clouds.8 mph42%30.01 "Hg10 mi
6:58 PM82 °FScattered clouds.8 mph33%29.99 "Hg10 mi
5:58 PM85 °FScattered clouds.7 mph29%30.00 "Hg10 mi
4:58 PM84 °FBroken clouds.10 mph29%30.00 "Hg10 mi
3:58 PM85 °FScattered clouds.7 mph29%30.00 "Hg10 mi
2:58 PM86 °FScattered clouds.6 mph30%30.01 "Hg10 mi
1:58 PM84 °FPassing clouds.8 mph33%30.01 "Hg10 mi
12:58 PM81 °FPassing clouds.7 mph37%30.05 "Hg10 mi
11:58 AM79 °FPassing clouds.6 mph39%30.06 "Hg10 mi
10:58 AM76 °FScattered clouds.5 mph50%30.07 "Hg10 mi
9:58 AM72 °FScattered clouds.7 mph61%30.09 "Hg10 mi
8:58 AM69 °FSunny.7 mph69%30.09 "Hg10 mi
8:55 AM69 °FScattered clouds.6 mph69%30.10 "Hg10 mi
7:58 AM67 °FScattered clouds.5 mph68%30.09 "Hg10 mi
6:58 AM65 °FPartly sunny.8 mph70%30.04 "Hg10 mi
5:58 AM62 °FPassing clouds.3 mph68%30.01 "Hg10 mi
4:58 AM62 °FPassing clouds.6 mph69%29.98 "Hg10 mi
3:58 AM64 °FPassing clouds.5 mph62%29.95 "Hg10 mi
2:58 AM65 °FPassing clouds.9 mph60%29.95 "Hg10 mi
Weather by CustomWeather, © 2015

See weather overviewHow to use our weather pages